TimeCST,TemperatureF,Dew PointF,Humidity,Sea Level PressureIn,VisibilityMPH,Wind Direction,Wind SpeedMPH,Gust SpeedMPH,PrecipitationIn,Events,Conditions,WindDirDegrees,DateUTC
12:15 AM,42.8,39.2,87,29.79,0.8,West,12.7,-,N/A,,Overcast,280,2013-01-28 06:15:00
12:35 AM,42.8,39.2,87,29.81,3.0,WNW,9.2,-,N/A,,Overcast,290,2013-01-28 06:35:00
12:55 AM,41.0,37.4,87,29.81,3.0,WNW,11.5,-,N/A,,Overcast,300,2013-01-28 06:55:00
1:15 AM,39.2,37.4,93,29.82,2.5,Calm,Calm,-,N/A,,Overcast,0,2013-01-28 07:15:00
1:35 AM,39.2,37.4,93,29.82,2.5,WNW,10.4,-,N/A,,Overcast,290,2013-01-28 07:35:00
1:55 AM,39.2,37.4,93,29.83,1.0,Calm,Calm,-,N/A,,Overcast,0,2013-01-28 07:55:00
2:15 AM,39.2,35.6,87,29.83,0.2,WNW,8.1,-,N/A,Fog,Fog,300,2013-01-28 08:15:00
2:35 AM,37.4,35.6,93,29.84,0.2,WNW,6.9,-,N/A,Fog,Fog,290,2013-01-28 08:35:00
2:55 AM,37.4,35.6,93,29.84,0.2,West,3.5,-,N/A,Fog,Fog,280,2013-01-28 08:55:00
3:15 AM,37.4,35.6,93,29.84,0.2,West,4.6,-,N/A,Fog,Fog,280,2013-01-28 09:15:00
3:35 AM,37.4,33.8,87,29.84,0.2,Calm,Calm,-,N/A,Fog,Fog,0,2013-01-28 09:35:00
3:55 AM,37.4,33.8,87,29.84,0.2,Calm,Calm,-,N/A,Fog,Fog,0,2013-01-28 09:55:00
4:15 AM,37.4,33.8,87,29.85,0.2,Calm,Calm,-,N/A,Fog,Fog,0,2013-01-28 10:15:00
4:35 AM,37.4,33.8,87,29.85,0.2,Calm,Calm,-,N/A,Fog,Fog,0,2013-01-28 10:35:00
4:55 AM,37.4,33.8,87,29.86,0.2,Calm,Calm,-,N/A,Fog,Fog,0,2013-01-28 10:55:00
5:15 AM,35.6,33.8,93,29.86,0.2,Calm,Calm,-,N/A,Fog,Fog,0,2013-01-28 11:15:00
5:35 AM,35.6,33.8,93,29.86,0.2,Calm,Calm,-,N/A,Fog,Fog,0,2013-01-28 11:35:00
5:55 AM,35.6,33.8,93,29.87,0.2,Calm,Calm,-,0.01,Fog,Fog,0,2013-01-28 11:55:00
6:15 AM,35.6,33.8,93,29.87,0.2,Calm,Calm,-,N/A,Fog,Fog,0,2013-01-28 12:15:00
6:35 AM,35.6,33.8,93,29.88,0.2,Calm,Calm,-,N/A,Fog,Fog,0,2013-01-28 12:35:00
6:55 AM,35.6,33.8,93,29.88,0.2,Calm,Calm,-,N/A,Fog,Fog,0,2013-01-28 12:55:00
7:15 AM,35.6,33.8,93,29.88,0.2,Calm,Calm,-,N/A,Fog,Fog,0,2013-01-28 13:15:00
7:35 AM,35.6,32.0,87,29.88,0.2,ENE,4.6,-,N/A,Fog,Fog,60,2013-01-28 13:35:00
7:55 AM,35.6,32.0,87,29.88,0.2,ENE,4.6,-,N/A,Rain,Light Rain,70,2013-01-28 13:55:00
8:15 AM,35.6,32.0,87,29.89,0.2,ENE,5.8,-,N/A,Fog,Fog,70,2013-01-28 14:15:00
8:35 AM,35.6,32.0,87,29.89,0.2,East,4.6,-,N/A,Fog,Fog,80,2013-01-28 14:35:00
8:55 AM,35.6,32.0,87,29.89,0.2,ENE,5.8,-,N/A,Fog,Fog,70,2013-01-28 14:55:00
9:15 AM,35.6,32.0,87,29.89,0.2,ESE,6.9,-,N/A,Fog,Fog,110,2013-01-28 15:15:00
9:35 AM,35.6,33.8,93,29.88,0.2,ESE,5.8,-,N/A,Fog,Fog,110,2013-01-28 15:35:00
9:55 AM,35.6,33.8,93,29.87,0.2,ENE,5.8,-,N/A,Fog,Fog,70,2013-01-28 15:55:00
10:15 AM,37.4,33.8,87,29.87,0.2,East,8.1,-,N/A,Fog,Fog,100,2013-01-28 16:15:00
10:35 AM,37.4,35.6,93,29.87,0.2,East,9.2,-,N/A,Fog,Fog,100,2013-01-28 16:35:00
11:35 AM,39.2,37.4,93,29.85,0.8,ESE,10.4,-,N/A,,Overcast,110,2013-01-28 17:35:00
11:55 AM,41.0,37.4,87,29.84,2.5,ESE,10.4,-,N/A,,Overcast,110,2013-01-28 17:55:00
12:15 PM,42.8,39.2,87,29.83,7.0,ESE,11.5,-,N/A,,Overcast,120,2013-01-28 18:15:00
12:35 PM,42.8,39.2,87,29.82,7.0,ESE,9.2,-,N/A,,Overcast,110,2013-01-28 18:35:00
12:55 PM,42.8,39.2,87,29.81,3.0,ESE,9.2,-,N/A,,Overcast,110,2013-01-28 18:55:00
1:15 PM,42.8,39.2,87,29.79,0.2,ESE,10.4,-,N/A,Fog,Fog,110,2013-01-28 19:15:00
1:35 PM,42.8,39.2,87,29.78,0.2,ESE,10.4,-,N/A,Fog,Fog,110,2013-01-28 19:35:00
1:55 PM,42.8,41.0,93,29.77,0.2,East,10.4,-,N/A,Fog,Fog,90,2013-01-28 19:55:00
2:15 PM,44.6,41.0,87,29.76,0.2,ESE,10.4,-,N/A,Fog,Fog,110,2013-01-28 20:15:00
2:35 PM,44.6,41.0,87,29.75,0.2,East,9.2,-,N/A,Fog,Fog,100,2013-01-28 20:35:00
2:55 PM,44.6,42.8,93,29.75,0.2,ESE,10.4,-,N/A,Fog,Fog,110,2013-01-28 20:55:00
3:15 PM,46.4,42.8,87,29.74,0.2,ESE,10.4,-,N/A,Fog,Fog,110,2013-01-28 21:15:00
3:35 PM,46.4,42.8,87,29.74,0.2,ESE,12.7,-,N/A,Fog,Fog,110,2013-01-28 21:35:00
3:55 PM,46.4,42.8,87,29.73,0.2,ESE,11.5,-,N/A,Fog,Fog,110,2013-01-28 21:55:00
4:15 PM,46.4,44.6,93,29.72,0.2,ESE,11.5,-,N/A,Fog,Fog,110,2013-01-28 22:15:00
4:35 PM,46.4,42.8,87,29.71,0.2,East,9.2,-,N/A,Fog,Fog,100,2013-01-28 22:35:00
4:55 PM,46.4,42.8,87,29.71,0.2,East,10.4,-,N/A,Fog,Fog,100,2013-01-28 22:55:00
5:15 PM,46.4,42.8,87,29.70,0.2,ESE,8.1,-,N/A,Fog,Fog,110,2013-01-28 23:15:00
5:35 PM,46.4,44.6,93,29.70,0.2,ESE,9.2,-,N/A,Fog,Fog,110,2013-01-28 23:35:00
5:55 PM,46.4,44.6,93,29.69,0.2,East,9.2,-,N/A,Fog,Fog,100,2013-01-28 23:55:00
6:15 PM,46.4,44.6,93,29.68,0.2,ESE,9.2,-,N/A,Fog,Fog,110,2013-01-29 00:15:00
6:35 PM,48.2,44.6,87,29.68,0.2,ESE,9.2,-,N/A,,Heavy Drizzle,120,2013-01-29 00:35:00
6:55 PM,48.2,44.6,87,29.68,0.2,ESE,9.2,-,N/A,,Light Drizzle,120,2013-01-29 00:55:00
7:15 PM,48.2,44.6,87,29.67,0.2,ESE,5.8,-,N/A,,Drizzle,110,2013-01-29 01:15:00
7:35 PM,46.4,44.6,93,29.66,0.2,Calm,Calm,-,N/A,Rain,Light Rain,0,2013-01-29 01:35:00
7:55 PM,48.2,44.6,87,29.65,0.2,ESE,8.1,-,N/A,Rain,Rain,120,2013-01-29 01:55:00
8:15 PM,48.2,46.4,93,29.65,1.2,ESE,6.9,-,N/A,Rain,Light Rain,120,2013-01-29 02:15:00
8:35 PM,48.2,46.4,93,29.63,2.0,SE,9.2,-,N/A,Rain,Light Rain,130,2013-01-29 02:35:00
8:55 PM,53.6,50.0,88,29.63,3.0,South,15.0,19.6,0.04,Rain,Rain,170,2013-01-29 02:55:00
9:15 PM,53.6,50.0,88,29.62,7.0,SSE,10.4,-,N/A,,Mostly Cloudy,160,2013-01-29 03:15:00
9:35 PM,51.8,48.2,88,29.62,5.0,South,4.6,-,N/A,,Mostly Cloudy,190,2013-01-29 03:35:00
9:55 PM,53.6,51.8,94,29.61,7.0,South,11.5,-,N/A,,Mostly Cloudy,180,2013-01-29 03:55:00
10:15 PM,55.4,53.6,94,29.61,10.0,South,12.7,21.9,0.05,,Overcast,190,2013-01-29 04:15:00
10:55 PM,55.4,51.8,88,29.60,10.0,South,16.1,-,0.05,,Scattered Clouds,180,2013-01-29 04:55:00
11:15 PM,55.4,53.6,94,29.59,10.0,South,17.3,23.0,N/A,,Clear,180,2013-01-29 05:15:00
11:35 PM,55.4,51.8,88,29.59,7.0,South,15.0,-,N/A,,Clear,180,2013-01-29 05:35:00
11:55 PM,55.4,51.8,88,29.59,7.0,South,13.8,-,N/A,,Clear,180,2013-01-29 05:55:00